Погода в Николаевке

Россия / Самарская область     53°05′25″N   50°18′47″E
темп.,
°C
ветер,
м/с
пор.,
м/с
влажн.,
%
обл.,
%
осадки,
мм/ч
давл.,
гПа
погр.,
м
22 января, сб
сб2201:00−13ююв41196100 0.0 1022225
04:00−11ююв51294100 0.1 1021280
07:00−10ююв61593100 0.0 1020368
10:00−8ююв71690100 0.0 1021484
13:00−6ююв81693100 0.4 1022501
16:00−6ююв71495100 1.0 1023496
19:00−6ююв61393100 1.1 1024468
22:00−7ююв61491100 1.5 1025472
23 января, вс
вс2301:00−7ююв61491100 0.0 1026368
04:00−8ююв51193100 0.0 1027312
07:00−8юв4991100 0.0 1028282
10:00−8юв51188100 0.0 1029300
13:00−7юв4985100 0.0 1031302
16:00−8вюв4789100 0.0 1032188
19:00−9вюв4988100 0.0 1033176
22:00−10в3689100 0.0 1035126
24 января, пн
пн2401:00−11в3787100 0.0 1036114
04:00−13в3590100 0.0 103672
07:00−12в3692100 0.0 1037108
10:00−12в3792100 0.0 1038136
13:00−9в3688100 0.0 1038190
16:00−9всв3592100 0.0 103797
19:00−12в3692100 0.0 103874
22:00−14в2391100 0.0 103739
25 января, вт
вт2501:00−17вюв2292100 0.0 103725
04:00−17вюв2293100 0.0 103611
07:00−18в2293100 0.0 103622
10:00−17вюв239095 0.0 103542
13:00−12ююв2485100 0.0 1034119
16:00−13юв229394 0.0 103320
19:00−18юв229617 0.0 103317
22:00−19юв229862 0.0 103325
26 января, ср
ср2601:00−20юв22989 0.0 103231
04:00−20вюв22987 0.0 103123
07:00−21вюв22975 0.0 103120
10:00−18юв25956 0.0 103082
13:00−13ююв369328 0.0 1029171
16:00−13вюв349598 0.0 102973
19:00−14юв3696100 0.0 102892
22:00−12юв3796100 0.0 1027145